ロニオス彗星

C/2005 EL173 ( LONEOS )

English version
Home page
Total 6,336 html files since Dec. 4, 1995
Updated on November 9, 2008

---------------------------------------------------------------------

・ プロフィール

発見日 2005年3月8日
発見光度 19.3等
発見者 Lowell Observatory Near-Earth Object Search

・ 軌道要素

The following orbital elements are taken from MPC 61702:

Epoch 2007 Mar. 1.0 TT = JDT 2454160.5
T 2007 Mar. 5.8704 TT                                   MPC
q   3.886339             (2000.0)            P               Q
z  -0.000868       Peri.  261.4933      +0.0263141      +0.9796701
 +/-0.000001       Node   344.7964      +0.9046947      -0.1079709
e   1.003372       Incl.  130.6796      -0.4252471      -0.1690820
From 285 observations 2005 Mar. 3-2007 Dec. 30, mean residual 0".6.

・ 星図

・ 光度変化

        m1 = 7.0 + 5 logΔ + 10.0 log r

---------------------------------------------------------------------

軌道要素はMPCのEphemerides and Orbital Elementsに掲載されたものです。
星図は StellaNavigator Ver.2.0 for Windows (アストロアーツ 編著 / アスキー出版局刊) で作成したものです。
光度グラフはComet for Windowsで作成したものです。

---------------------------------------------------------------------

Copyright(C) 1995-2008 Seiichi Yoshida (comet@aerith.net). All rights reserved.